Santa Monica, CA

7:06 AM PDT on May 23, 2017 (GMT -0700)
Santa Monica Municipal

Weather History for KSMO - July, 2013

Change the Weather History Date:

Tuesday, July 9, 2013

  Actual Average Record
Temperature  
Mean Temperature 70 °F -  
Max Temperature 75 °F 79 °F 92 °F (1992)
Min Temperature 64 °F 62 °F 51 °F (1935)
Cooling Degree Days 4    
Growing Degree Days 20 (Base 50)    
Moisture  
Dew Point 61 °F    
Average Humidity 78    
Maximum Humidity 94    
Minimum Humidity 62    
Precipitation  
Precipitation 0.00 in - - ()
Sea Level Pressure  
Sea Level Pressure 29.95 in    
Wind  
Wind Speed 2 mph (SSW)    
Max Wind Speed 9 mph    
Max Gust Speed -    
Visibility 9 miles    
Events      
Averages and records for this station are not official NWS values.
T = Trace of Precipitation, MM = Missing Value Source: NWS Daily Summary

Daily Weather History Graph

Daily Weather History Graph

Search for Another Location

Airport or City:

Trip Planner

Search our weather history database for the weather conditions in past years. The results will help you decide how hot, cold, wet, or windy it might be!

Date:

Astronomy

Jul. 09, 2013 Rise Set
Actual Time 5:50 AM PDT 8:07 PM PDT
Civil Twilight 5:21 AM PDT 8:36 PM PDT
Nautical Twilight 4:46 AM PDT 9:11 PM PDT
Astronomical Twilight 4:07 AM PDT 9:50 PM PDT
Moon 7:12 AM PDT (7/9) 8:55 PM PDT (7/9)
Length of Visible Light 15h 15m
Length of Day
14h 17m
New Moon, 2% of the Moon is Illuminated
Jul 9
New Moon
Jul 15
First Quarter
Jul 22
Full
Jul 29
Last Quarter
Aug 6
New

Hourly Weather History & Observations

Time (PDT) Temp. Dew Point Humidity Pressure Visibility Wind Dir Wind Speed Gust Speed Precip Events Conditions
12:51 AM 66.0 °F 60.1 °F 81% 29.92 in 10.0 mi Calm Calm - N/A   Clear
1:51 AM 66.0 °F 61.0 °F 84% 29.92 in 10.0 mi Calm Calm - N/A   Clear
2:51 AM 64.9 °F 61.0 °F 87% 29.90 in 10.0 mi Calm Calm - N/A   Clear
3:51 AM 64.9 °F 61.0 °F 87% 29.89 in 9.0 mi Calm Calm - N/A   Clear
4:51 AM 64.0 °F 61.0 °F 90% 29.90 in 8.0 mi Calm Calm - N/A   Clear
5:23 AM 64.4 °F 60.8 °F 88% 29.91 in 8.0 mi Calm Calm - N/A   Scattered Clouds
5:36 AM 64.4 °F 60.8 °F 88% 29.92 in 8.0 mi Calm Calm - N/A   Mostly Cloudy
5:51 AM 64.0 °F 61.0 °F 90% 29.92 in 5.0 mi Calm Calm - N/A   Overcast
6:12 AM 64.4 °F 62.6 °F 94% 29.93 in 2.0 mi Calm Calm - N/A   Overcast
6:34 AM 64.4 °F 62.6 °F 94% 29.94 in 4.0 mi Calm Calm - N/A   Overcast
6:51 AM 64.9 °F 62.1 °F 90% 29.94 in 5.0 mi Calm Calm - N/A   Mostly Cloudy
7:01 AM 66.2 °F 62.6 °F 88% 29.95 in 6.0 mi Calm Calm - N/A   Haze
7:51 AM 68.0 °F 63.0 °F 84% 29.96 in 7.0 mi Calm Calm - N/A   Clear
8:51 AM 71.1 °F 63.0 °F 75% 29.96 in 9.0 mi South 3.5 mph - N/A   Clear
9:51 AM 72.0 °F 62.1 °F 71% 29.98 in 10.0 mi SSW 5.8 mph - N/A   Clear
10:51 AM 73.9 °F 62.1 °F 66% 29.99 in 10.0 mi SSW 6.9 mph - N/A   Clear
11:51 AM 73.9 °F 61.0 °F 64% 30.00 in 10.0 mi SSW 8.1 mph - N/A   Clear
12:51 PM 75.0 °F 61.0 °F 62% 30.00 in 10.0 mi SSW 8.1 mph - N/A   Clear
1:51 PM 75.0 °F 61.0 °F 62% 30.01 in 10.0 mi SSW 9.2 mph - N/A   Clear
2:51 PM 73.9 °F 61.0 °F 64% 30.00 in 10.0 mi SW 9.2 mph - N/A   Clear
3:51 PM 73.0 °F 61.0 °F 66% 29.98 in 10.0 mi SSW 6.9 mph - N/A   Clear
4:51 PM 73.0 °F 61.0 °F 66% 29.97 in 10.0 mi Variable 4.6 mph - N/A   Clear
5:51 PM 73.0 °F 61.0 °F 66% 29.95 in 10.0 mi SW 6.9 mph - N/A   Clear
6:51 PM 72.0 °F 61.0 °F 68% 29.92 in 10.0 mi WSW 5.8 mph - N/A   Clear
7:51 PM 69.1 °F 61.0 °F 75% 29.93 in 10.0 mi SW 9.2 mph - N/A   Clear
8:51 PM 66.9 °F 60.1 °F 79% 29.94 in 10.0 mi SW 4.6 mph - N/A   Clear
9:51 PM 66.9 °F 60.1 °F 79% 29.95 in 10.0 mi Calm Calm - N/A   Clear
10:51 PM 66.0 °F 60.1 °F 81% 29.96 in 10.0 mi South 3.5 mph - N/A   Clear
11:51 PM 64.9 °F 60.1 °F 84% 29.96 in 9.0 mi Calm Calm - N/A   Clear